Regional Weather Roundup
Issued by NWS

Home | Current Version | Previous Version | Text Only | Print | Product List | Glossary On
Versions: 1 2 3 4 5 6 7 8 9 10 11 12 13 14 15 16 17 18 19 20 21 22 23 24 25 26 27 28 29 30 31 32 33 34 35 36 37 38 39 40 41 42 43 44 45 46 47 48 49 50
000
ASUS45 KBOU 241907
RWRCO

WEATHER ROUNDUP FOR COLORADO
NATIONAL WEATHER SERVICE DENVER/BOULDER CO
100 PM MDT WED MAY 24 2017

NOTE: "FAIR" INDICATES FEW OR NO CLOUDS BELOW 12000 FEET WITH NO
SIGNIFICANT WEATHER AND/OR OBSTRUCTIONS TO VISIBILITY.

COZ001>005-013-030-031-242000-
...NORTHWEST COLORADO...

CITY           SKY/WX    TMP DP  RH WIND       PRES   REMARKS
CRAIG          FAIR      74  32  21 W17G26    29.84F
HAYDEN         FAIR      70  34  26 W20       29.86F
MEEKER         FAIR      76  27  16 W15G31    29.87F
RABBIT EARS PA FAIR      48  36  61 W9G25     30.09F
STEAMBOAT SPGS FAIR      68  37  32 W15       29.87F
WALDEN           N/A     63  30  29 SW17G24   29.94F
$$

COZ006>008-011-242000-
...WEST CENTRAL VALLEYS...

CITY           SKY/WX    TMP DP  RH WIND       PRES   REMARKS
GRAND JUNCTION FAIR      76  32  20 CALM      29.83F
MONTROSE       FAIR      77  33  20 NE3       29.90F
EAGLE          SUNNY     72  32  23 W25G37    29.90F
RIFLE          FAIR      79  30  16 W20G29    29.84F
DELTA          FAIR      79  31  17 SE6       29.86F
NUCLA          NOT AVBL
$$

COZ017>023-064>068-242000-
...SOUTHWEST COLORADO...

CITY           SKY/WX    TMP DP  RH WIND       PRES   REMARKS
DURANGO        FAIR      77  28  16 W29G36    29.96F
CORTEZ         FAIR      77  33  20 S10       29.96F
PAGOSA SPRINGS FAIR      70  24  18 S12G22    30.03F
TELLURIDE      FAIR      64  27  24 W13G20    30.14F
WOLF CREEK PAS FAIR      45  25  45 SW17G23   30.32S
$$

COZ009-010-012-014-032>034-037-058>063-242000-
...CENTRAL COLORADO...

CITY           SKY/WX    TMP DP  RH WIND       PRES   REMARKS
ASPEN          FAIR      67  32  27 N18G26    29.96F
BUENA VISTA    FAIR      69  19  14 SW16G29   29.95F
COPPER MTN     FAIR      48  23  37 W23G29    30.18F
BERTHOUD PASS  PTSUNNY   37  28  70 NW36G53   30.14F
COTTONWOOD PAS FAIR      64  16  15 SW15G23   30.07F
GUNNISON       FAIR      69  30  23 W18G31    29.99F
KREMMLING      FAIR      77  32  19 W13G23    29.90F
LEADVILLE      FAIR      56  21  25 NW16G33   30.07F
MONARCH PASS   FAIR      45  25  45 W38G48    30.31F
SALIDA         FAIR      73  24  16 W15G26    30.01F
SUNLIGHT       FAIR      52  28  40 SW8G23    30.18F
WILKERSON PASS FAIR      52  21  30 W12G24    30.17F
$$

COZ069>075-242000-
...SAN LUIS VALLEY/SANGRE DE CRISTO MOUNTAINS...

CITY           SKY/WX    TMP DP  RH WIND       PRES   REMARKS
ALAMOSA        FAIR      67  29  24 VRB7      29.97F
DEL NORTE      FAIR      68  31  24 E10       29.98F
LA VETA PASS   FAIR      59  28  31 S22       30.20F
SAGUACHE       FAIR      72  25  17 NW13G29   29.98F
$$

COZ035-036-038>040-242000-
...NORTHERN COLORADO FRONT RANGE...

CITY           SKY/WX    TMP DP  RH WIND       PRES   REMARKS
DENVER INTL AP FAIR      78  35  21 W8        29.72F
DMNS CITY PARK   N/A     78  31  18 NW14G26   29.71F
AURORA         MOSUNNY   78  34  19 NW22G28   29.73F
FRONT RANGE AP MOSUNNY   79  36  21 W12G21    29.74F
ERIE MUNI ARPT FAIR      77  34  20 W5        29.70F
BOULDER MUN AP FAIR      77  41  27 W5        29.70F
CENTENNIAL     FAIR      77  32  19 N7G18     29.75F
BROOMFIELD     MOSUNNY   77  34  20 W17G23    29.74F
FORT COLLINS     N/A     74  45  35 SE8       29.69F
LONGMONT       FAIR      80  41  25 E7        29.70F
$$

COZ041-046-047-076>085-087-088-242000-
...PIKES PEAK/PALMER DIVIDE AND SOUTHERN FOOTHILLS...

CITY           SKY/WX    TMP DP  RH WIND       PRES   REMARKS
COLO. SPRINGS  FAIR      75  39  27 S14       29.79F
A. F. ACADEMY  FAIR      74  36  24 S8        29.79F
SCHRIEVER AFB  FAIR      72  35  25 S15       29.80F
CHEYENNE MTN   FAIR      69  38  32 S5        29.78F
ELLICOTT       FAIR     N/A N/A N/A S13       29.78F
FALCON         FAIR      72  34  24 S8        29.84F
FORT CARSON    FAIR      74  42  31 E10       29.76F
LIMON          FAIR      74  38  27 MISG      29.75F
MONUMENT HILL  FAIR      70  32  24 NW12G23   29.85F
CANON CITY     NOT AVBL
WALSENBURG     FAIR      79  36  21 W10G17    29.81F
TRINIDAD       FAIR      77  29  17 CALM      29.82F
$$

COZ042>045-048>051-090-091-242000-
...NORTHEAST COLORADO...

CITY           SKY/WX    TMP DP  RH WIND       PRES   REMARKS
GREELEY ARPT   FAIR      77  43  29 S12       29.69F
AKRON          FAIR      74  39  28 W12       29.71F
BURLINGTON     FAIR      69  44  40 S10G18    29.75F
WRAY           FAIR      72  39  30 S12G18    29.70F
YUMA           FAIR      72  41  33 SW5       29.69F
STERLING       FAIR      73  45  35 S7        29.65F
HOLYOKE        NOT AVBL
FORT MORGAN    FAIR      77  36  23 S9        29.69F
$$

COZ086-089-092>099-242000-
...SOUTHEAST COLORADO...

CITY           SKY/WX    TMP DP  RH WIND       PRES   REMARKS
PUEBLO         FAIR      79  44  28 SE14      29.70F
LA JUNTA       FAIR      76  39  26 MISG      29.74F
LAMAR          FAIR      75  39  27 VRB5      29.72F
SPRINGFIELD      N/A     73  39  29 VRB3      29.77F
$$



USA.gov is the U.S. government's official web portal to all federal, state and local government web resources and services.